Flag for Austria Weather past 2 weeks in Klagenfurt, Carinthia, Austria

Now
54 °F

Sprinkles. Broken clouds.


Feels Like: 54 °F
Forecast: 44 / 67 °F
Wind: 2 mph from North

Location: Klagenfurt-Flughafen


UV Index: 3 (Moderate)

Visibility: N/A


Pressure: 29.77 "Hg

Humidity: 82%

Dew point: 48 °F

Location of KlagenfurtLocation

Historic Weather in Klagenfurt

°F

Klagenfurt temperature yesterday

Maximum temperature yesterday: 50 °F (at 12:20 AM)
Minimum temperature yesterday: 46 °F (at 6:20 AM)
Average temperature yesterday: 48 °F

Past Weeks' High & Low Weather Summary

 TemperatureHumidityPressure
High72 °F (Apr 8, 3:20 PM)100% (Apr 7, 12:50 AM)30.24 "Hg (Apr 7, 12:50 AM)
Low30 °F (Apr 16, 4:20 AM)22% (Apr 18, 2:20 PM)29.68 "Hg (Apr 18, 4:20 PM)
Average50 °F66%29.99 "Hg
* Reported Apr 6 2:20 PM — Apr 21 2:50 PM, Klagenfurt, Weather by CustomWeather, © 2014

Note: Actual official high and low records may vary slightly from our data, if they occured in-between our weather recording intervals... More about our weather records

Advertising

Historic Weather Conditions — Data for Previous 24 hours

 ConditionsComfort  
Time TempWeatherWind HumidityBarometerVisibility
2:50 PM
Apr 21
54 °FBroken clouds.2 mph82%29.77 "HgN/A
2:20 PM54 °FSprinkles. Broken clouds.5 mph77%29.77 "HgN/A
1:50 PM54 °FSprinkles. Partly sunny.3 mph82%29.77 "HgN/A
1:20 PM54 °FPartly sunny.3 mph77%29.77 "HgN/A
12:50 PM54 °FPartly sunny.3 mph77%29.77 "HgN/A
12:20 PM54 °FPartly sunny.2 mph77%29.77 "HgN/A
11:50 AM52 °FPartly sunny.2 mph82%29.77 "HgN/A
11:20 AM52 °FPartly sunny.1 mph82%29.77 "HgN/A
10:50 AM50 °FPartly sunny.2 mph88%29.80 "HgN/A
10:20 AM50 °FLight rain. Partly sunny.1 mph88%29.80 "HgN/A
9:50 AM50 °FLight rain. Partly sunny.2 mph88%29.80 "HgN/A
9:20 AM50 °FPartly sunny.1 mph88%29.80 "HgN/A
8:50 AM48 °FPartly sunny.2 mph94%29.80 "HgN/A
8:20 AM48 °FBroken clouds.2 mph94%29.80 "HgN/A
7:50 AM46 °FBroken clouds.3 mph93%29.80 "HgN/A
7:20 AM46 °FLight rain. Broken clouds.2 mph93%29.80 "HgN/A
6:50 AM46 °FPartly cloudy.2 mph100%29.77 "HgN/A
6:20 AM46 °FPassing clouds.1 mph100%29.77 "Hg5 mi
5:50 AM46 °FPartly cloudy.2 mph100%29.77 "Hg5 mi
5:20 AM46 °FLight rain. Partly cloudy.2 mph100%29.77 "Hg5 mi
4:50 AM46 °FPassing clouds.2 mph100%29.77 "Hg5 mi
4:20 AM46 °FPassing clouds.1 mph100%29.77 "Hg5 mi
3:50 AM46 °FPassing clouds.2 mph100%29.80 "Hg5 mi
3:20 AM46 °FPartly cloudy.1 mph100%29.80 "HgN/A
2:50 AM46 °FSprinkles. Passing clouds.2 mph100%29.80 "HgN/A
2:20 AM46 °FSprinkles. Passing clouds.2 mph100%29.80 "HgN/A
1:50 AM46 °FPassing clouds.2 mph100%29.80 "HgN/A
1:20 AM48 °FPartly cloudy.3 mph94%29.83 "HgN/A
12:50 AM48 °FPassing clouds.2 mph94%29.83 "HgN/A
12:20 AM48 °FPassing clouds.2 mph94%29.83 "HgN/A
11:50 PM
Apr 20
48 °FPassing clouds.1 mph94%29.83 "HgN/A
10:50 PM48 °FPassing clouds.1 mph94%29.83 "Hg5 mi
10:20 PM48 °FPartly cloudy.1 mph94%29.83 "Hg5 mi
9:50 PM48 °FPassing clouds.2 mph94%29.83 "HgN/A
9:20 PM48 °FPassing clouds.1 mph94%29.83 "HgN/A
8:50 PM48 °FBroken clouds.1 mph94%29.80 "HgN/A
8:20 PM48 °FBroken clouds.1 mph94%29.80 "HgN/A
7:50 PM48 °FPartly sunny.No wind87%29.80 "HgN/A
7:20 PM48 °FLight rain. Partly sunny.2 mph87%29.80 "HgN/A
6:50 PM50 °FPartly sunny.3 mph82%29.80 "HgN/A
6:20 PM50 °FBroken clouds.3 mph82%29.80 "HgN/A
5:50 PM48 °FBroken clouds.2 mph87%29.80 "HgN/A
5:20 PM48 °FBroken clouds.5 mph87%29.80 "HgN/A
4:50 PM50 °FBroken clouds.5 mph82%29.80 "HgN/A
4:20 PM48 °FBroken clouds.6 mph87%29.80 "HgN/A
3:50 PM48 °FBroken clouds.3 mph87%29.83 "HgN/A
3:20 PM48 °FLight rain. Broken clouds.5 mph94%29.83 "HgN/A
Weather by CustomWeather, © 2014

See weather overview